• Processing (Info)

  • MPEC 2016-T73 : 2016 TL11

    The following Minor Planet Electronic Circular may be linked-to from your own Web pages, but must not otherwise be redistributed electronically.

    A form allowing access to any MPEC is at the bottom of this page.


    Read MPEC 2016-T72 Read MPEC 2016-T74


    M.P.E.C. 2016-T73                                Issued 2016 Oct. 8, 14:38 UT
    
         The Minor Planet Electronic Circulars contain information on unusual
             minor planets and routine data on comets.  They are published
        on behalf of Division F of the International Astronomical Union by the
              Minor Planet Center, Smithsonian Astrophysical Observatory,
                              Cambridge, MA 02138, U.S.A.
    
                 Prepared using the Tamkin Foundation Computer Network
    
                                  MPC@CFA.HARVARD.EDU
                URL https://www.minorplanetcenter.net/    ISSN 1523-6714
    
                                       2016 TL11
    
    Observations:
         K16T11L  C2016 09 26.46384 00 59 17.55 -00 33 33.3          21.4 RtET073F51
         K16T11L  C2016 09 26.48926 00 59 18.83 -00 33 40.5          21.1 RtET073F51
         K16T11L* C2016 10 04.33564 01 06 36.57 -01 07 32.1          21.1 VqET073G96
         K16T11L  C2016 10 04.34122 01 06 36.77 -01 07 33.6          21.0 VqET073G96
         K16T11L  C2016 10 04.34686 01 06 37.00 -01 07 34.7          20.9 VqET073G96
         K16T11L  C2016 10 04.35245 01 06 37.21 -01 07 36.0          21.6 VqET073G96
         K16T11L  C2016 10 04.42766 01 06 40.23 -01 07 52.4          20.9 VqET073G96
         K16T11L  C2016 10 04.43518 01 06 40.54 -01 07 53.1          20.5 VqET073G96
         K16T11L  C2016 10 04.45022 01 06 41.32 -01 07 58.0          20.5 VqET073G96
         K16T11L  C2016 10 05.23799 01 07 21.79 -01 10 40.1          21.9 RoET073291
         K16T11L  C2016 10 05.25097 01 07 22.29 -01 10 43.0          21.6 RoET073291
         K16T11L  C2016 10 05.26509 01 07 22.83 -01 10 45.7          21.5 RoET073291
         K16T11L  C2016 10 05.37394 01 07 26.96 -01 11 06.9          20.8 RoET073926
         K16T11L  C2016 10 05.38779 01 07 27.47 -01 11 09.9          20.5 RoET073926
         K16T11L  C2016 10 05.40392 01 07 28.12 -01 11 13.4          20.1 RoET073926
         K16T11L  C2016 10 07.32624 01 08 59.30 -01 17 08.4          21.4 VqET073G96
         K16T11L  C2016 10 07.33816 01 08 59.64 -01 17 11.4          20.4 VqET073G96
         K16T11L  C2016 10 07.35010 01 09 00.15 -01 17 14.3          21.0 VqET073G96
         K16T11L  C2016 10 07.36224 01 09 00.57 -01 17 16.2          21.4 VqET073G96
         K16T11L  C2016 10 07.42624 01 09 02.95 -01 17 26.6          20.9 VqET073G96
         K16T11L  C2016 10 07.43748 01 09 03.41 -01 17 28.6          20.1 VqET073G96
         K16T11L  C2016 10 07.44893 01 09 03.84 -01 17 30.4          21.4 VqET073G96
         K16T11L  C2016 10 07.46086 01 09 04.26 -01 17 32.7          20.4 VqET073G96
    
    Observer details:
    291 LPL/Spacewatch II.  Observer A. F. Tubbiolo.  1.8-m f/2.7 reflector + CCD.
    926 Tenagra II Observatory.  Observers M. Schwartz, P. R. Holvorcem.  Measurer
        M. Schwartz.  0.81-m f/7 Ritchey-Chretien + CCD.
    F51 Pan-STARRS 1, Haleakala.  Observers N. Primak, A. Schultz, T. Goggia,
        M. Willman.  Measurers P. Veres, K. Chambers, S. Chastel, L. Denneau,
        H. Flewelling, M. Huber, E. Lilly, E. Magnier, R. Wainscoat, C. Waters,
        R. Weryk.  1.8-m Ritchey-Chretien + CCD.
    G96 Mt. Lemmon Survey.  Observers A. D. Grauer, R. G. Matheny, G. J. Leonard.
        Measurers E. J. Christensen, D. C. Fuls, A. R. Gibbs, A. D. Grauer,
        J. A. Johnson, R. A. Kowalski, S. M. Larson, G. J. Leonard, R. G. Matheny,
        R. L. Seaman, F. C. Shelly.  1.5-m reflector + 10K CCD.
    
    Orbital elements:
    2016 TL11                                                Earth MOID = 0.2731 AU
    Epoch 2016 July 31.0 TT = JDT 2457600.5                 MPC
    M 347.68981              (2000.0)            P               Q
    n   0.26906661     Peri.  196.05264     +0.99757985     +0.06677663
    a   2.3762721      Node   160.08806     -0.05588201     +0.93580390
    e   0.4621686      Incl.    3.26094     -0.04137193     +0.34613863
    P   3.66           H   22.7           G   0.15           U   8
    Residuals in seconds of arc
    160926 F51  0.1+  0.1-    161004 G96  1.9+  1.3-    161007 G96  1.0-  0.4+
    160926 F51  0.0   0.1+    161005 291  0.1-  0.1+    161007 G96  0.3+  0.4-
    161004 G96  0.1+  0.2+    161005 291  0.2-  0.2-    161007 G96  0.0   0.3-
    161004 G96  0.2-  0.1-    161005 291  0.3-  0.0     161007 G96  0.2+  0.0
    161004 G96  0.1-  0.0     161005 926  0.0   0.4+    161007 G96  0.7+  0.1-
    161004 G96  0.2-  0.1-    161005 926  0.4-  0.2+    161007 G96  0.4+  0.0
    161004 G96  0.3-  0.5-    161005 926  0.1-  0.1-    161007 G96  0.3-  0.3-
    161004 G96  0.3-  0.4+    161007 G96  0.3+  1.4+
    
    Ephemeris:
    2016 TL11                a,e,i = 2.38, 0.46, 3                   q = 1.2780
    Date    TT    R. A. (2000) Decl.     Delta      r     Elong.  Phase     V
    2016 09 08    00 34 21.6 +00 51 29   0.2902  1.2799   157.2    17.8    21.5
    ...
    2016 09 23    00 55 28.6 -00 16 12   0.2838  1.2809   166.3    10.7    21.2
    ...
    2016 10 01    01 03 43.1 -00 54 09   0.2909  1.2890   170.5     7.4    21.1
    ...
    2016 10 07    01 08 44.4 -01 15 57   0.3013  1.2985   172.0     6.2    21.1
    2016 10 08    01 09 30.1 -01 18 45   0.3035  1.3003   171.9     6.2    21.2
    2016 10 09    01 10 14.8 -01 21 16   0.3058  1.3022   171.9     6.2    21.2
    ...
    2016 10 15    01 14 24.9 -01 30 06   0.3221  1.3154   169.9     7.7    21.4
    ...
    2016 10 23    01 19 29.8 -01 23 56   0.3508  1.3369   165.0    11.1    21.7
    ...
    2016 11 07    01 29 25.6 -00 17 26   0.4272  1.3882   154.3    18.1    22.5
    
    A. U. Tomatic                (C) Copyright 2016 MPC           M.P.E.C. 2016-T73
    

    Read MPEC 2016-T72 Read MPEC 2016-T74


    MPEC number:

    Enter an MPEC number in one of the following forms:

    • 1997-B01 (the full form)
    • J97B01 (the packed version of the full form)
    • B01 (the abbreviated form)